Location: Alulod
(14.2076°N, 120.8898°E)
Time: 04:19:04
(UTC+00:00)

Meteor 1-26 Rocket - Pass Details

Date: 13 December 2025
Orbit: 807 x 926 km, 81.3° (Epoch: 21 January)

Event Time Altitude Azimuth Distance (km) Brightness Sun altitude
Rises 21:38:16 0° 349° (N) 3,438 7.0 -8.4°
Reaches altitude 10° 21:40:40 10° 347° (NNW) 2,518 6.3 -7.9°
Maximum altitude 21:46:22 66° 266° (W) 966 4.3 -6.6°
Drops below altitude 10° 21:52:13 10° 184° (S) 2,588 7.0 -5.3°
Sets 21:54:43 0° 181° (S) 3,540 7.7 -4.7°
